Location: Alvis C Story Elementary School
(33.0968°N, 96.6364°W)
Time: 14:23:00
(UTC+00:00)

Cosmos 1538 Rocket - Pass Details

Date: 08 December 2021
Orbit: 753 x 791 km, 74.0° (Epoch: 25 January)

Event Time Altitude Azimuth Distance (km) Brightness Sun altitude
Rises 12:33:52 0° 343° (NNW) 3,229 6.9 -9.2°
Reaches altitude 10° 12:36:15 10° 343° (NNW) 2,295 6.1 -8.7°
Maximum altitude 12:41:27 88° 256° (WSW) 760 4.0 -7.7°
Drops below altitude 10° 12:46:36 10° 166° (SSE) 2,267 7.0 -6.7°
Sets 12:48:57 0° 165° (SSE) 3,187 7.8 -6.3°
